datetime,flow
1949-10-01,94.0
1949-10-02,103.0
1949-10-03,108.0
1949-10-04,100.0
1949-10-05,98.0
1949-10-06,94.0
1949-10-07,112.0
1949-10-08,128.0
1949-10-09,122.0
1949-10-10,120.0
1949-10-11,118.0
1949-10-12,103.0
1949-10-13,96.0
1949-10-14,87.0
1949-10-15,87.0
1949-10-16,76.0
1949-10-17,72.0
1949-10-18,70.0
1949-10-19,80.0
1949-10-20,82.0
1949-10-21,74.0
1949-10-22,66.0
1949-10-23,58.0
1949-10-24,66.0
1949-10-25,68.0
1949-10-26,68.0
1949-10-27,70.0
1949-10-28,68.0
1949-10-29,68.0
1949-10-30,74.0
1949-10-31,68.0
1949-11-01,68.0
1949-11-02,74.0
1949-11-03,74.0
1949-11-04,70.0
1949-11-05,70.0
1949-11-06,72.0
1949-11-07,70.0
1949-11-08,70.0
1949-11-09,70.0
1949-11-10,70.0
1949-11-11,70.0
1949-11-12,64.0
1949-11-13,58.0
1949-11-14,62.0
1949-11-15,66.0
1949-11-16,68.0
1949-11-17,66.0
1949-11-18,64.0
1949-11-19,64.0
1949-11-20,64.0
1949-11-21,60.0
1949-11-22,46.0
1949-11-23,56.0
1949-11-24,66.0
1949-11-25,66.0
1949-11-26,62.0
1949-11-27,62.0
1949-11-28,58.0
1949-11-29,60.0
1949-11-30,58.0
1949-12-01,52.0
1949-12-02,44.0
1949-12-03,48.0
1949-12-04,44.0
1949-12-05,35.0
1949-12-06,56.0
1949-12-07,54.0
1949-12-08,39.0
1949-12-09,35.0
1949-12-10,35.0
1949-12-11,31.0
1949-12-12,21.0
1949-12-13,20.0
1949-12-14,23.0
1949-12-15,25.0
1949-12-16,27.0
1949-12-17,29.0
1949-12-18,30.0
1949-12-19,31.0
1949-12-20,27.0
1949-12-21,24.0
1949-12-22,22.0
1949-12-23,22.0
1949-12-24,25.0
1949-12-25,23.0
1949-12-26,21.0
1949-12-27,23.0
1949-12-28,22.0
1949-12-29,21.0
1949-12-30,20.0
1949-12-31,20.0
1950-01-01,21.0
1950-01-02,22.0
1950-01-03,21.0
1950-01-04,19.0
1950-01-05,19.0
1950-01-06,20.0
1950-01-07,22.0
1950-01-08,29.0
1950-01-09,28.0
1950-01-10,27.0
1950-01-11,28.0
1950-01-12,27.0
1950-01-13,28.0
1950-01-14,30.0
1950-01-15,29.0
1950-01-16,26.0
1950-01-17,32.0
1950-01-18,29.0
1950-01-19,32.0
1950-01-20,34.0
1950-01-21,37.0
1950-01-22,42.0
1950-01-23,39.0
1950-01-24,35.0
1950-01-25,29.0
1950-01-26,25.0
1950-01-27,29.0
1950-01-28,37.0
1950-01-29,36.0
1950-01-30,35.0
1950-01-31,33.0
1950-02-01,36.0
1950-02-02,36.0
1950-02-03,39.0
1950-02-04,45.0
1950-02-05,58.0
1950-02-06,62.0
1950-02-07,59.0
1950-02-08,57.0
1950-02-09,56.0
1950-02-10,61.0
1950-02-11,64.0
1950-02-12,68.0
1950-02-13,66.0
1950-02-14,64.0
1950-02-15,70.0
1950-02-16,82.0
1950-02-17,78.0
1950-02-18,74.0
1950-02-19,70.0
1950-02-20,76.0
1950-02-21,74.0
1950-02-22,62.0
1950-02-23,66.0
1950-02-24,78.0
1950-02-25,78.0
1950-02-26,78.0
1950-02-27,78.0
1950-02-28,80.0
1950-03-01,70.0
1950-03-02,62.0
1950-03-03,70.0
1950-03-04,68.0
1950-03-05,72.0
1950-03-06,76.0
1950-03-07,78.0
1950-03-08,39.0
1950-03-09,54.0
1950-03-10,76.0
1950-03-11,72.0
1950-03-12,65.0
1950-03-13,60.0
1950-03-14,60.0
1950-03-15,72.0
1950-03-16,64.0
1950-03-17,68.0
1950-03-18,68.0
1950-03-19,72.0
1950-03-20,74.0
1950-03-21,70.0
1950-03-22,64.0
1950-03-23,62.0
1950-03-24,64.0
1950-03-25,64.0
1950-03-26,68.0
1950-03-27,68.0
1950-03-28,56.0
1950-03-29,63.0
1950-03-30,62.0
1950-03-31,68.0
1950-04-01,68.0
1950-04-02,70.0
1950-04-03,84.0
1950-04-04,87.0
1950-04-05,66.0
1950-04-06,52.0
1950-04-07,68.0
1950-04-08,94.0
1950-04-09,118.0
1950-04-10,128.0
1950-04-11,105.0
1950-04-12,91.0
1950-04-13,87.0
1950-04-14,96.0
1950-04-15,120.0
1950-04-16,156.0
1950-04-17,115.0
1950-04-18,89.0
1950-04-19,115.0
1950-04-20,103.0
1950-04-21,91.0
1950-04-22,91.0
1950-04-23,108.0
1950-04-24,136.0
1950-04-25,133.0
1950-04-26,112.0
1950-04-27,100.0
1950-04-28,115.0
1950-04-29,136.0
1950-04-30,120.0
1950-05-01,115.0
1950-05-02,112.0
1950-05-03,120.0
1950-05-04,146.0
1950-05-05,176.0
1950-05-06,140.0
1950-05-07,184.0
1950-05-08,173.0
1950-05-09,146.0
1950-05-10,162.0
1950-05-11,159.0
1950-05-12,156.0
1950-05-13,169.0
1950-05-14,184.0
1950-05-15,210.0
1950-05-16,234.0
1950-05-17,287.0
1950-05-18,408.0
1950-05-19,451.0
1950-05-20,470.0
1950-05-21,514.0
1950-05-22,653.0
1950-05-23,935.0
1950-05-24,1070.0
1950-05-25,1200.0
1950-05-26,969.0
1950-05-27,791.0
1950-05-28,752.0
1950-05-29,697.0
1950-05-30,678.0
1950-05-31,927.0
1950-06-01,1160.0
1950-06-02,1520.0
1950-06-03,1380.0
1950-06-04,1150.0
1950-06-05,1250.0
1950-06-06,1860.0
1950-06-07,2110.0
1950-06-08,1950.0
1950-06-09,1180.0
1950-06-10,1300.0
1950-06-11,1730.0
1950-06-12,1960.0
1950-06-13,1900.0
1950-06-14,2140.0
1950-06-15,2240.0
1950-06-16,2180.0
1950-06-17,2460.0
1950-06-18,2220.0
1950-06-19,1890.0
1950-06-20,1660.0
1950-06-21,1620.0
1950-06-22,1370.0
1950-06-23,1230.0
1950-06-24,1070.0
1950-06-25,1010.0
1950-06-26,1070.0
1950-06-27,1140.0
1950-06-28,1070.0
1950-06-29,927.0
1950-06-30,791.0
1950-07-01,691.0
1950-07-02,744.0
1950-07-03,807.0
1950-07-04,791.0
1950-07-05,815.0
1950-07-06,783.0
1950-07-07,935.0
1950-07-08,887.0
1950-07-09,799.0
1950-07-10,775.0
1950-07-11,919.0
1950-07-12,911.0
1950-07-13,744.0
1950-07-14,565.0
1950-07-15,596.0
1950-07-16,584.0
1950-07-17,546.0
1950-07-18,508.0
1950-07-19,483.0
1950-07-20,458.0
1950-07-21,445.0
1950-07-22,433.0
1950-07-23,458.0
1950-07-24,483.0
1950-07-25,445.0
1950-07-26,414.0
1950-07-27,433.0
1950-07-28,445.0
1950-07-29,433.0
1950-07-30,476.0
1950-07-31,445.0
1950-08-01,408.0
1950-08-02,362.0
1950-08-03,362.0
1950-08-04,351.0
1950-08-05,316.0
1950-08-06,330.0
1950-08-07,346.0
1950-08-08,325.0
1950-08-09,292.0
1950-08-10,273.0
1950-08-11,292.0
1950-08-12,320.0
1950-08-13,351.0
1950-08-14,335.0
1950-08-15,306.0
1950-08-16,273.0
1950-08-17,256.0
1950-08-18,247.0
1950-08-19,251.0
1950-08-20,264.0
1950-08-21,273.0
1950-08-22,260.0
1950-08-23,260.0
1950-08-24,287.0
1950-08-25,202.0
1950-08-26,130.0
1950-08-27,112.0
1950-08-28,198.0
1950-08-29,273.0
1950-08-30,273.0
1950-08-31,278.0
1950-09-01,264.0
1950-09-02,152.0
1950-09-03,112.0
1950-09-04,89.0
1950-09-05,82.0
1950-09-06,78.0
1950-09-07,66.0
1950-09-08,64.0
1950-09-09,84.0
1950-09-10,356.0
1950-09-11,502.0
1950-09-12,508.0
1950-09-13,514.0
1950-09-14,514.0
1950-09-15,426.0
1950-09-16,202.0
1950-09-17,152.0
1950-09-18,156.0
1950-09-19,130.0
1950-09-20,136.0
1950-09-21,173.0
1950-09-22,156.0
1950-09-23,143.0
1950-09-24,133.0
1950-09-25,125.0
1950-09-26,120.0
1950-09-27,110.0
1950-09-28,103.0
1950-09-29,96.0
1950-09-30,89.0
1950-10-01,89.0
1950-10-02,93.0
1950-10-03,101.0
1950-10-04,105.0
1950-10-05,103.0
1950-10-06,91.0
1950-10-07,83.0
1950-10-08,80.0
1950-10-09,80.0
1950-10-10,80.0
1950-10-11,70.0
1950-10-12,56.0
1950-10-13,40.0
1950-10-14,42.0
1950-10-15,42.0
1950-10-16,38.0
1950-10-17,42.0
1950-10-18,38.0
1950-10-19,40.0
1950-10-20,38.0
1950-10-21,37.0
1950-10-22,35.0
1950-10-23,35.0
1950-10-24,37.0
1950-10-25,35.0
1950-10-26,35.0
1950-10-27,32.0
1950-10-28,32.0
1950-10-29,29.0
1950-10-30,30.0
1950-10-31,34.0
1950-11-01,29.0
1950-11-02,32.0
1950-11-03,37.0
1950-11-04,34.0
1950-11-05,35.0
1950-11-06,40.0
1950-11-07,42.0
1950-11-08,45.0
1950-11-09,40.0
1950-11-10,15.0
1950-11-11,26.0
1950-11-12,34.0
1950-11-13,45.0
1950-11-14,54.0
1950-11-15,50.0
1950-11-16,45.0
1950-11-17,49.0
1950-11-18,50.0
1950-11-19,52.0
1950-11-20,45.0
1950-11-21,52.0
1950-11-22,54.0
1950-11-23,47.0
1950-11-24,44.0
1950-11-25,57.0
1950-11-26,45.0
1950-11-27,40.0
1950-11-28,42.0
1950-11-29,37.0
1950-11-30,38.0
1950-12-01,40.0
1950-12-02,33.0
1950-12-03,37.0
1950-12-04,33.0
1950-12-05,25.0
1950-12-06,20.0
1950-12-07,25.0
1950-12-08,34.0
1950-12-09,32.0
1950-12-10,34.0
1950-12-11,36.0
1950-12-12,34.0
1950-12-13,33.0
1950-12-14,35.0
1950-12-15,45.0
1950-12-16,42.0
1950-12-17,34.0
1950-12-18,30.0
1950-12-19,42.0
1950-12-20,45.0
1950-12-21,40.0
1950-12-22,38.0
1950-12-23,24.0
1950-12-24,34.0
1950-12-25,40.0
1950-12-26,32.0
1950-12-27,26.0
1950-12-28,6.3
1950-12-29,5.6
1950-12-30,16.0
1950-12-31,35.0
1951-01-01,33.0
1951-01-02,25.0
1951-01-03,18.0
1951-01-04,24.0
1951-01-05,29.0
1951-01-06,25.0
1951-01-07,21.0
1951-01-08,26.0
1951-01-09,29.0
1951-01-10,28.0
1951-01-11,27.0
1951-01-12,27.0
1951-01-13,26.0
1951-01-14,28.0
1951-01-15,31.0
1951-01-16,30.0
1951-01-17,29.0
1951-01-18,31.0
1951-01-19,31.0
1951-01-20,29.0
1951-01-21,28.0
1951-01-22,30.0
1951-01-23,29.0
1951-01-24,30.0
1951-01-25,32.0
1951-01-26,34.0
1951-01-27,32.0
1951-01-28,30.0
1951-01-29,28.0
1951-01-30,26.0
1951-01-31,24.0
1951-02-01,22.0
1951-02-02,24.0
1951-02-03,26.0
1951-02-04,28.0
1951-02-05,33.0
1951-02-06,32.0
1951-02-07,33.0
1951-02-08,36.0
1951-02-09,35.0
1951-02-10,36.0
1951-02-11,38.0
1951-02-12,35.0
1951-02-13,30.0
1951-02-14,29.0
1951-02-15,32.0
1951-02-16,33.0
1951-02-17,34.0
1951-02-18,33.0
1951-02-19,32.0
1951-02-20,31.0
1951-02-21,33.0
1951-02-22,34.0
1951-02-23,34.0
1951-02-24,34.0
1951-02-25,33.0
1951-02-26,33.0
1951-02-27,32.0
1951-02-28,32.0
1951-03-01,28.0
1951-03-02,42.0
1951-03-03,32.0
1951-03-04,37.0
1951-03-05,34.0
1951-03-06,34.0
1951-03-07,32.0
1951-03-08,29.0
1951-03-09,23.0
1951-03-10,34.0
1951-03-11,29.0
1951-03-12,20.0
1951-03-13,29.0
1951-03-14,29.0
1951-03-15,29.0
1951-03-16,26.0
1951-03-17,14.0
1951-03-18,22.0
1951-03-19,22.0
1951-03-20,29.0
1951-03-21,50.0
1951-03-22,61.0
1951-03-23,57.0
1951-03-24,56.0
1951-03-25,57.0
1951-03-26,59.0
1951-03-27,63.0
1951-03-28,63.0
1951-03-29,54.0
1951-03-30,52.0
1951-03-31,56.0
1951-04-01,57.0
1951-04-02,54.0
1951-04-03,54.0
1951-04-04,63.0
1951-04-05,76.0
1951-04-06,87.0
1951-04-07,85.0
1951-04-08,76.0
1951-04-09,74.0
1951-04-10,85.0
1951-04-11,70.0
1951-04-12,63.0
1951-04-13,68.0
1951-04-14,74.0
1951-04-15,96.0
1951-04-16,105.0
1951-04-17,98.0
1951-04-18,108.0
1951-04-19,121.0
1951-04-20,136.0
1951-04-21,142.0
1951-04-22,133.0
1951-04-23,136.0
1951-04-24,171.0
1951-04-25,193.0
1951-04-26,186.0
1951-04-27,201.0
1951-04-28,205.0
1951-04-29,229.0
1951-04-30,256.0
1951-05-01,247.0
1951-05-02,220.0
1951-05-03,216.0
1951-05-04,201.0
1951-05-05,216.0
1951-05-06,278.0
1951-05-07,315.0
1951-05-08,325.0
1951-05-09,355.0
1951-05-10,340.0
1951-05-11,269.0
1951-05-12,269.0
1951-05-13,340.0
1951-05-14,381.0
1951-05-15,391.0
1951-05-16,578.0
1951-05-17,906.0
1951-05-18,1120.0
1951-05-19,1200.0
1951-05-20,1360.0
1951-05-21,1550.0
1951-05-22,1570.0
1951-05-23,1790.0
1951-05-24,1880.0
1951-05-25,1790.0
1951-05-26,1810.0
1951-05-27,1890.0
1951-05-28,2180.0
1951-05-29,2560.0
1951-05-30,2420.0
1951-05-31,2540.0
1951-06-01,2720.0
1951-06-02,2120.0
1951-06-03,1630.0
1951-06-04,1420.0
1951-06-05,1470.0
1951-06-06,1470.0
1951-06-07,1350.0
1951-06-08,1500.0
1951-06-09,1480.0
1951-06-10,1440.0
1951-06-11,1480.0
1951-06-12,1440.0
1951-06-13,1280.0
1951-06-14,1340.0
1951-06-15,1570.0
1951-06-16,1610.0
1951-06-17,2050.0
1951-06-18,1950.0
1951-06-19,1940.0
1951-06-20,2460.0
1951-06-21,2220.0
1951-06-22,1800.0
1951-06-23,1530.0
1951-06-24,1390.0
1951-06-25,1290.0
1951-06-26,1560.0
1951-06-27,1690.0
1951-06-28,1950.0
1951-06-29,1950.0
1951-06-30,1710.0
1951-07-01,2050.0
1951-07-02,1940.0
1951-07-03,1960.0
1951-07-04,2070.0
1951-07-05,1930.0
1951-07-06,1740.0
1951-07-07,1710.0
1951-07-08,1740.0
1951-07-09,1300.0
1951-07-10,1070.0
1951-07-11,1080.0
1951-07-12,1310.0
1951-07-13,998.0
1951-07-14,866.0
1951-07-15,968.0
1951-07-16,1180.0
1951-07-17,1120.0
1951-07-18,1010.0
1951-07-19,954.0
1951-07-20,780.0
1951-07-21,794.0
1951-07-22,914.0
1951-07-23,874.0
1951-07-24,650.0
1951-07-25,584.0
1951-07-26,537.0
1951-07-27,514.0
1951-07-28,578.0
1951-07-29,632.0
1951-07-30,584.0
1951-07-31,555.0
1951-08-01,578.0
1951-08-02,596.0
1951-08-03,1820.0
1951-08-04,1450.0
1951-08-05,786.0
1951-08-06,596.0
1951-08-07,514.0
1951-08-08,345.0
1951-08-09,225.0
1951-08-10,168.0
1951-08-11,148.0
1951-08-12,162.0
1951-08-13,269.0
1951-08-14,296.0
1951-08-15,287.0
1951-08-16,216.0
1951-08-17,193.0
1951-08-18,229.0
1951-08-19,310.0
1951-08-20,365.0
1951-08-21,474.0
1951-08-22,456.0
1951-08-23,325.0
1951-08-24,315.0
1951-08-25,296.0
1951-08-26,310.0
1951-08-27,320.0
1951-08-28,330.0
1951-08-29,360.0
1951-08-30,402.0
1951-08-31,434.0
1951-09-01,330.0
1951-09-02,287.0
1951-09-03,310.0
1951-09-04,325.0
1951-09-05,340.0
1951-09-06,340.0
1951-09-07,325.0
1951-09-08,212.0
1951-09-09,168.0
1951-09-10,274.0
1951-09-11,355.0
1951-09-12,381.0
1951-09-13,386.0
1951-09-14,189.0
1951-09-15,158.0
1951-09-16,376.0
1951-09-17,365.0
1951-09-18,355.0
1951-09-19,355.0
1951-09-20,402.0
1951-09-21,429.0
1951-09-22,424.0
1951-09-23,355.0
1951-09-24,220.0
1951-09-25,142.0
1951-09-26,115.0
1951-09-27,130.0
1951-09-28,142.0
1951-09-29,142.0
1951-09-30,127.0
1951-10-01,124.0
1951-10-02,136.0
1951-10-03,133.0
1951-10-04,110.0
1951-10-05,124.0
1951-10-06,118.0
1951-10-07,103.0
1951-10-08,98.0
1951-10-09,101.0
1951-10-10,93.0
1951-10-11,80.0
1951-10-12,83.0
1951-10-13,83.0
1951-10-14,78.0
1951-10-15,70.0
1951-10-16,70.0
1951-10-17,72.0
1951-10-18,70.0
1951-10-19,70.0
1951-10-20,70.0
1951-10-21,76.0
1951-10-22,76.0
1951-10-23,70.0
1951-10-24,78.0
1951-10-25,80.0
1951-10-26,73.0
1951-10-27,89.0
1951-10-28,80.0
1951-10-29,76.0
1951-10-30,72.0
1951-10-31,70.0
1951-11-01,63.0
1951-11-02,38.0
1951-11-03,34.0
1951-11-04,63.0
1951-11-05,68.0
1951-11-06,63.0
1951-11-07,56.0
1951-11-08,68.0
1951-11-09,68.0
1951-11-10,63.0
1951-11-11,63.0
1951-11-12,61.0
1951-11-13,56.0
1951-11-14,32.0
1951-11-15,49.0
1951-11-16,42.0
1951-11-17,32.0
1951-11-18,28.0
1951-11-19,47.0
1951-11-20,66.0
1951-11-21,70.0
1951-11-22,65.0
1951-11-23,54.0
1951-11-24,47.0
1951-11-25,49.0
1951-11-26,40.0
1951-11-27,42.0
1951-11-28,47.0
1951-11-29,45.0
1951-11-30,42.0
1951-12-01,40.0
1951-12-02,40.0
1951-12-03,40.0
1951-12-04,40.0
1951-12-05,40.0
1951-12-06,40.0
1951-12-07,40.0
1951-12-08,40.0
1951-12-09,40.0
1951-12-10,40.0
1951-12-11,40.0
1951-12-12,40.0
1951-12-13,40.0
1951-12-14,40.0
1951-12-15,40.0
1951-12-16,45.0
1951-12-17,45.0
1951-12-18,45.0
1951-12-19,45.0
1951-12-20,45.0
1951-12-21,45.0
1951-12-22,45.0
1951-12-23,45.0
1951-12-24,45.0
1951-12-25,45.0
1951-12-26,45.0
1951-12-27,45.0
1951-12-28,45.0
1951-12-29,45.0
1951-12-30,45.0
1951-12-31,45.0
1952-01-01,42.0
1952-01-02,42.0
1952-01-03,42.0
1952-01-04,42.0
1952-01-05,42.0
1952-01-06,42.0
1952-01-07,42.0
1952-01-08,42.0
1952-01-09,42.0
1952-01-10,42.0
1952-01-11,42.0
1952-01-12,42.0
1952-01-13,42.0
1952-01-14,42.0
1952-01-15,42.0
1952-01-16,44.0
1952-01-17,44.0
1952-01-18,44.0
1952-01-19,44.0
1952-01-20,44.0
1952-01-21,44.0
1952-01-22,44.0
1952-01-23,44.0
1952-01-24,44.0
1952-01-25,44.0
1952-01-26,44.0
1952-01-27,44.0
1952-01-28,44.0
1952-01-29,44.0
1952-01-30,44.0
1952-01-31,44.0
1952-02-01,31.0
1952-02-02,31.0
1952-02-03,31.0
1952-02-04,31.0
1952-02-05,31.0
1952-02-06,31.0
1952-02-07,31.0
1952-02-08,31.0
1952-02-09,31.0
1952-02-10,31.0
1952-02-11,31.0
1952-02-12,31.0
1952-02-13,31.0
1952-02-14,31.0
1952-02-15,31.0
1952-02-16,26.0
1952-02-17,26.0
1952-02-18,26.0
1952-02-19,26.0
1952-02-20,26.0
1952-02-21,26.0
1952-02-22,26.0
1952-02-23,26.0
1952-02-24,26.0
1952-02-25,26.0
1952-02-26,26.0
1952-02-27,26.0
1952-02-28,26.0
1952-02-29,26.0
1952-03-01,31.0
1952-03-02,31.0
1952-03-03,31.0
1952-03-04,31.0
1952-03-05,31.0
1952-03-06,31.0
1952-03-07,31.0
1952-03-08,31.0
1952-03-09,31.0
1952-03-10,31.0
1952-03-11,31.0
1952-03-12,31.0
1952-03-13,31.0
1952-03-14,35.0
1952-03-15,30.0
1952-03-16,32.0
1952-03-17,40.0
1952-03-18,30.0
1952-03-19,34.0
1952-03-20,23.0
1952-03-21,16.0
1952-03-22,16.0
1952-03-23,26.0
1952-03-24,38.0
1952-03-25,56.0
1952-03-26,42.0
1952-03-27,45.0
1952-03-28,49.0
1952-03-29,54.0
1952-03-30,54.0
1952-03-31,65.0
1952-04-01,65.0
1952-04-02,74.0
1952-04-03,70.0
1952-04-04,68.0
1952-04-05,70.0
1952-04-06,76.0
1952-04-07,98.0
1952-04-08,113.0
1952-04-09,113.0
1952-04-10,93.0
1952-04-11,96.0
1952-04-12,103.0
1952-04-13,98.0
1952-04-14,91.0
1952-04-15,96.0
1952-04-16,105.0
1952-04-17,103.0
1952-04-18,105.0
1952-04-19,118.0
1952-04-20,133.0
1952-04-21,189.0
1952-04-22,208.0
1952-04-23,189.0
1952-04-24,274.0
1952-04-25,52.0
1952-04-26,7.0
1952-04-27,6.3
1952-04-28,5.6
1952-04-29,127.0
1952-04-30,59.0
1952-05-01,20.0
1952-05-02,11.0
1952-05-03,30.0
1952-05-04,115.0
1952-05-05,335.0
1952-05-06,485.0
1952-05-07,462.0
1952-05-08,549.0
1952-05-09,532.0
1952-05-10,407.0
1952-05-11,566.0
1952-05-12,714.0
1952-05-13,914.0
1952-05-14,1130.0
1952-05-15,1360.0
1952-05-16,1510.0
1952-05-17,1340.0
1952-05-18,1130.0
1952-05-19,1060.0
1952-05-20,978.0
1952-05-21,1010.0
1952-05-22,962.0
1952-05-23,922.0
1952-05-24,794.0
1952-05-25,714.0
1952-05-26,778.0
1952-05-27,786.0
1952-05-28,810.0
1952-05-29,1180.0
1952-05-30,1400.0
1952-05-31,1430.0
1952-06-01,1680.0
1952-06-02,1790.0
1952-06-03,1900.0
1952-06-04,2240.0
1952-06-05,2470.0
1952-06-06,2660.0
1952-06-07,2690.0
1952-06-08,2990.0
1952-06-09,2930.0
1952-06-10,2930.0
1952-06-11,2840.0
1952-06-12,2640.0
1952-06-13,2570.0
1952-06-14,2590.0
1952-06-15,2740.0
1952-06-16,2680.0
1952-06-17,2110.0
1952-06-18,1760.0
1952-06-19,1570.0
1952-06-20,1630.0
1952-06-21,1620.0
1952-06-22,1660.0
1952-06-23,1470.0
1952-06-24,1320.0
1952-06-25,1540.0
1952-06-26,1660.0
1952-06-27,1500.0
1952-06-28,1390.0
1952-06-29,1140.0
1952-06-30,1050.0
1952-07-01,970.0
1952-07-02,1020.0
1952-07-03,970.0
1952-07-04,834.0
1952-07-05,728.0
1952-07-06,763.0
1952-07-07,970.0
1952-07-08,922.0
1952-07-09,763.0
1952-07-10,669.0
1952-07-11,537.0
1952-07-12,526.0
1952-07-13,590.0
1952-07-14,608.0
1952-07-15,650.0
1952-07-16,608.0
1952-07-17,543.0
1952-07-18,543.0
1952-07-19,479.0
1952-07-20,462.0
1952-07-21,479.0
1952-07-22,391.0
1952-07-23,386.0
1952-07-24,451.0
1952-07-25,479.0
1952-07-26,626.0
1952-07-27,572.0
1952-07-28,572.0
1952-07-29,584.0
1952-07-30,555.0
1952-07-31,451.0
1952-08-01,407.0
1952-08-02,402.0
1952-08-03,446.0
1952-08-04,503.0
1952-08-05,462.0
1952-08-06,397.0
1952-08-07,355.0
1952-08-08,424.0
1952-08-09,468.0
1952-08-10,543.0
1952-08-11,566.0
1952-08-12,532.0
1952-08-13,503.0
1952-08-14,446.0
1952-08-15,462.0
1952-08-16,386.0
1952-08-17,386.0
1952-08-18,371.0
1952-08-19,292.0
1952-08-20,287.0
1952-08-21,292.0
1952-08-22,315.0
1952-08-23,305.0
1952-08-24,386.0
1952-08-25,365.0
1952-08-26,335.0
1952-08-27,305.0
1952-08-28,320.0
1952-08-29,335.0
1952-08-30,391.0
1952-08-31,407.0
1952-09-01,386.0
1952-09-02,330.0
1952-09-03,305.0
1952-09-04,310.0
1952-09-05,330.0
1952-09-06,216.0
1952-09-07,152.0
1952-09-08,269.0
1952-09-09,424.0
1952-09-10,474.0
1952-09-11,424.0
1952-09-12,407.0
1952-09-13,197.0
1952-09-14,145.0
1952-09-15,365.0
1952-09-16,424.0
1952-09-17,468.0
1952-09-18,434.0
1952-09-19,402.0
1952-09-20,260.0
1952-09-21,182.0
1952-09-22,136.0
1952-09-23,110.0
1952-09-24,103.0
1952-09-25,87.0
1952-09-26,78.0
1952-09-27,78.0
1952-09-28,78.0
1952-09-29,83.0
1952-09-30,78.0
1952-10-01,78.0
1952-10-02,87.0
1952-10-03,80.0
1952-10-04,72.0
1952-10-05,68.0
1952-10-06,66.0
1952-10-07,70.0
1952-10-08,70.0
1952-10-09,66.0
1952-10-10,66.0
1952-10-11,66.0
1952-10-12,61.0
1952-10-13,63.0
1952-10-14,61.0
1952-10-15,63.0
1952-10-16,56.0
1952-10-17,49.0
1952-10-18,56.0
1952-10-19,56.0
1952-10-20,52.0
1952-10-21,57.0
1952-10-22,65.0
1952-10-23,63.0
1952-10-24,61.0
1952-10-25,59.0
1952-10-26,49.0
1952-10-27,40.0
1952-10-28,40.0
1952-10-29,40.0
1952-10-30,38.0
1952-10-31,38.0
1952-11-01,38.0
1952-11-02,42.0
1952-11-03,45.0
1952-11-04,42.0
1952-11-05,44.0
1952-11-06,45.0
1952-11-07,54.0
1952-11-08,49.0
1952-11-09,47.0
1952-11-10,44.0
1952-11-11,38.0
1952-11-12,42.0
1952-11-13,42.0
1952-11-14,40.0
1952-11-15,37.0
1952-11-16,37.0
1952-11-17,37.0
1952-11-18,35.0
1952-11-19,34.0
1952-11-20,32.0
1952-11-21,38.0
1952-11-22,34.0
1952-11-23,22.0
1952-11-24,20.0
1952-11-25,26.0
1952-11-26,25.0
1952-11-27,24.0
1952-11-28,22.0
1952-11-29,23.0
1952-11-30,24.0
1952-12-01,25.0
1952-12-02,25.0
1952-12-03,26.0
1952-12-04,23.0
1952-12-05,25.0
1952-12-06,29.0
1952-12-07,29.0
1952-12-08,30.0
1952-12-09,27.0
1952-12-10,26.0
1952-12-11,32.0
1952-12-12,30.0
1952-12-13,33.0
1952-12-14,34.0
1952-12-15,35.0
1952-12-16,36.0
1952-12-17,37.0
1952-12-18,31.0
1952-12-19,32.0
1952-12-20,33.0
1952-12-21,30.0
1952-12-22,25.0
1952-12-23,22.0
1952-12-24,20.0
1952-12-25,19.0
1952-12-26,19.0
1952-12-27,20.0
1952-12-28,20.0
1952-12-29,21.0
1952-12-30,23.0
1952-12-31,26.0
1953-01-01,25.0
1953-01-02,23.0
1953-01-03,24.0
1953-01-04,26.0
1953-01-05,29.0
1953-01-06,25.0
1953-01-07,26.0
1953-01-08,32.0
1953-01-09,38.0
1953-01-10,35.0
1953-01-11,36.0
1953-01-12,37.0
1953-01-13,34.0
1953-01-14,29.0
1953-01-15,25.0
1953-01-16,23.0
1953-01-17,27.0
1953-01-18,39.0
1953-01-19,41.0
1953-01-20,38.0
1953-01-21,36.0
1953-01-22,35.0
1953-01-23,46.0
1953-01-24,49.0
1953-01-25,49.0
1953-01-26,47.0
1953-01-27,45.0
1953-01-28,44.0
1953-01-29,47.0
1953-01-30,45.0
1953-01-31,43.0
1953-02-01,44.0
1953-02-02,45.0
1953-02-03,47.0
1953-02-04,50.0
1953-02-05,46.0
1953-02-06,43.0
1953-02-07,39.0
1953-02-08,43.0
1953-02-09,40.0
1953-02-10,33.0
1953-02-11,35.0
1953-02-12,39.0
1953-02-13,38.0
1953-02-14,37.0
1953-02-15,46.0
1953-02-16,40.0
1953-02-17,47.0
1953-02-18,48.0
1953-02-19,42.0
1953-02-20,37.0
1953-02-21,32.0
1953-02-22,35.0
1953-02-23,37.0
1953-02-24,36.0
1953-02-25,35.0
1953-02-26,39.0
1953-02-27,42.0
1953-02-28,41.0
1953-03-01,38.0
1953-03-02,35.0
1953-03-03,33.0
1953-03-04,33.0
1953-03-05,33.0
1953-03-06,34.0
1953-03-07,34.0
1953-03-08,35.0
1953-03-09,35.0
1953-03-10,37.0
1953-03-11,40.0
1953-03-12,35.0
1953-03-13,32.0
1953-03-14,30.0
1953-03-15,22.0
1953-03-16,28.0
1953-03-17,32.0
1953-03-18,29.0
1953-03-19,23.0
1953-03-20,30.0
1953-03-21,24.0
1953-03-22,16.0
1953-03-23,19.0
1953-03-24,29.0
1953-03-25,28.0
1953-03-26,34.0
1953-03-27,32.0
1953-03-28,37.0
1953-03-29,38.0
1953-03-30,61.0
1953-03-31,66.0
1953-04-01,52.0
1953-04-02,47.0
1953-04-03,44.0
1953-04-04,37.0
1953-04-05,30.0
1953-04-06,35.0
1953-04-07,42.0
1953-04-08,44.0
1953-04-09,38.0
1953-04-10,40.0
1953-04-11,34.0
1953-04-12,32.0
1953-04-13,49.0
1953-04-14,47.0
1953-04-15,38.0
1953-04-16,34.0
1953-04-17,42.0
1953-04-18,37.0
1953-04-19,30.0
1953-04-20,44.0
1953-04-21,40.0
1953-04-22,49.0
1953-04-23,66.0
1953-04-24,70.0
1953-04-25,66.0
1953-04-26,66.0
1953-04-27,66.0
1953-04-28,76.0
1953-04-29,83.0
1953-04-30,78.0
1953-05-01,72.0
1953-05-02,72.0
1953-05-03,68.0
1953-05-04,68.0
1953-05-05,65.0
1953-05-06,59.0
1953-05-07,59.0
1953-05-08,68.0
1953-05-09,80.0
1953-05-10,91.0
1953-05-11,91.0
1953-05-12,89.0
1953-05-13,83.0
1953-05-14,72.0
1953-05-15,72.0
1953-05-16,103.0
1953-05-17,124.0
1953-05-18,115.0
1953-05-19,130.0
1953-05-20,139.0
1953-05-21,168.0
1953-05-22,182.0
1953-05-23,242.0
1953-05-24,355.0
1953-05-25,520.0
1953-05-26,681.0
1953-05-27,842.0
1953-05-28,1270.0
1953-05-29,1750.0
1953-05-30,1380.0
1953-05-31,1200.0
1953-06-01,1410.0
1953-06-02,1340.0
1953-06-03,1300.0
1953-06-04,1060.0
1953-06-05,1080.0
1953-06-06,1070.0
1953-06-07,1040.0
1953-06-08,794.0
1953-06-09,1020.0
1953-06-10,1670.0
1953-06-11,1880.0
1953-06-12,1760.0
1953-06-13,1940.0
1953-06-14,2070.0
1953-06-15,1740.0
1953-06-16,1360.0
1953-06-17,1240.0
1953-06-18,1480.0
1953-06-19,1760.0
1953-06-20,1560.0
1953-06-21,1130.0
1953-06-22,986.0
1953-06-23,914.0
1953-06-24,786.0
1953-06-25,802.0
1953-06-26,756.0
1953-06-27,638.0
1953-06-28,714.0
1953-06-29,669.0
1953-06-30,555.0
1953-07-01,526.0
1953-07-02,663.0
1953-07-03,650.0
1953-07-04,578.0
1953-07-05,537.0
1953-07-06,485.0
1953-07-07,491.0
1953-07-08,440.0
1953-07-09,429.0
1953-07-10,537.0
1953-07-11,794.0
1953-07-12,756.0
1953-07-13,688.0
1953-07-14,514.0
1953-07-15,407.0
1953-07-16,555.0
1953-07-17,561.0
1953-07-18,526.0
1953-07-19,381.0
1953-07-20,305.0
1953-07-21,251.0
1953-07-22,208.0
1953-07-23,201.0
1953-07-24,165.0
1953-07-25,142.0
1953-07-26,205.0
1953-07-27,256.0
1953-07-28,256.0
1953-07-29,247.0
1953-07-30,407.0
1953-07-31,491.0
1953-08-01,503.0
1953-08-02,537.0
1953-08-03,657.0
1953-08-04,614.0
1953-08-05,412.0
1953-08-06,300.0
1953-08-07,274.0
1953-08-08,274.0
1953-08-09,274.0
1953-08-10,330.0
1953-08-11,340.0
1953-08-12,274.0
1953-08-13,238.0
1953-08-14,229.0
1953-08-15,269.0
1953-08-16,300.0
1953-08-17,292.0
1953-08-18,251.0
1953-08-19,238.0
1953-08-20,269.0
1953-08-21,238.0
1953-08-22,247.0
1953-08-23,287.0
1953-08-24,251.0
1953-08-25,208.0
1953-08-26,205.0
1953-08-27,168.0
1953-08-28,148.0
1953-08-29,158.0
1953-08-30,182.0
1953-08-31,182.0
1953-09-01,171.0
1953-09-02,118.0
1953-09-03,108.0
1953-09-04,124.0
1953-09-05,133.0
1953-09-06,145.0
1953-09-07,115.0
1953-09-08,98.0
1953-09-09,118.0
1953-09-10,133.0
1953-09-11,130.0
1953-09-12,115.0
1953-09-13,118.0
1953-09-14,127.0
1953-09-15,158.0
1953-09-16,155.0
1953-09-17,142.0
1953-09-18,165.0
1953-09-19,155.0